Overview Statistics Trail Chart Weather Telemetry Raw packets
 

This is the latest recevied weather packets stored in our database for station/object K1RFS. If no packets are shown the sender has not sent any weather packets the latest 10 day(s).

<< 33 34 35 36 37 38 39 >>
Time Temp. Humidity Pressure Rain* Wind** Luminosity Snow
1788466297 28.89° C 13% 999.1 hPa 0 mm - 584 W/m² -
1788465993 28.89° C 13% 999.1 hPa 0 mm - 586 W/m² -
1788465688 28.33° C 13% 999.1 hPa 0 mm - 586 W/m² -
1788465384 28.33° C 13% 999.3 hPa 0 mm - 591 W/m² -
1788465079 28.33° C 13% 999.3 hPa 0 mm - 587 W/m² -
1788464775 27.78° C 13% 999.6 hPa 0 mm - 594 W/m² -
1788464474 27.78° C 14% 999.4 hPa 0 mm - 592 W/m² -
1788464170 27.78° C 14% 999.6 hPa 0 mm - 595 W/m² -
1788463866 27.78° C 14% 999.4 hPa 0 mm - 588 W/m² -
1788463563 27.78° C 14% 999.7 hPa 0 mm - 593 W/m² -
1788463263 27.78° C 14% 999.7 hPa 0 mm - 593 W/m² -
1788462959 27.78° C 14% 999.8 hPa 0 mm - 594 W/m² -
1788462654 27.78° C 14% 999.9 hPa 0 mm - 591 W/m² -
1788462353 27.22° C 14% 999.9 hPa 0 mm - 590 W/m² -
1788462053 27.22° C 14% 1000 hPa 0 mm - 588 W/m² -
1788461748 27.22° C 14% 1000 hPa 0 mm - 585 W/m² -
1788461444 27.22° C 13% 1000 hPa 0 mm - 580 W/m² -
1788461140 27.22° C 14% 1000.2 hPa 0 mm - 577 W/m² -
1788460835 26.67° C 14% 1000.2 hPa 0 mm - 573 W/m² -
1788460534 26.67° C 14% 1000.1 hPa 0 mm - 564 W/m² -
1788460229 26.67° C 15% 1000.4 hPa 0 mm - 563 W/m² -
1788459927 26.67° C 15% 1000.2 hPa 0 mm - 559 W/m² -
1788459625 26.11° C 16% 1000.6 hPa 0 mm - 550 W/m² -
1788459318 26.11° C 16% 1000.2 hPa 0 mm - 547 W/m² -
1788459017 26.67° C 16% 1000.7 hPa 0 mm - 543 W/m² -

* Rain latest hour (hover to see other rain measurements)
** Current wind speed in m/s (hover to see current wind gust speed)